Location: Chèvreville
(49.1099°N, 2.8495°E)
Time: 23:26:02
(UTC+00:00)

Meteor 1-11 - Pass Details

Date: 28 January 2023
Orbit: 839 x 888 km, 81.2° (Epoch: 21 March)

Event Time Altitude Azimuth Distance (km) Brightness Sun altitude
Rises 18:35:31 0° 176° (S) 3,480 7.4 -19.1°
Reaches altitude 10° 18:37:59 10° 172° (S) 2,547 6.7 -19.5°
Maximum altitude 18:43:39 57° 95° (E) 1,045 4.3 -20.4°
Drops below altitude 10° 18:49:20 10° 19° (NNE) 2,557 6.5 -21.3°
Sets 18:51:49 0° 16° (NNE) 3,496 7.2 -21.7°
